Flag for Myanmar Weather past 2 weeks in Yangon, Myanmar

Now
81 °F

Passing clouds.


Feels Like: 86 °F
Forecast: 78 / 88 °F
Wind: 3 mph from Southwest

Location: Rangoon Airport

Current Time: Aug 21, 2014 at 9:17:40 PM

Latest Report: Aug 21, 2014 at 8:30 PM


Visibility: 4 mi

Pressure: 29.80 "Hg

Humidity: 84%

Dew point: 75 °F

Location of YangonLocation

Historic Weather in Yangon — Graph

°F

Yangon temperature yesterday

Maximum temperature yesterday: 86 °F (at 12:30 PM)
Minimum temperature yesterday: 77 °F (at 7:00 PM)
Average temperature yesterday: 80 °F

Past Weeks' High & Low Weather Summary

 TemperatureHumidityPressure
High90 °F (Aug 17, 3:00 PM)100% (Aug 6, 7:30 PM)32.26 "Hg (Aug 6, 7:30 PM)
Low75 °F (Aug 7, 6:30 AM)67% (Aug 17, 3:00 PM)29.62 "Hg (Aug 7, 4:00 PM)
Average80 °F90%29.79 "Hg
* Reported Aug 6 7:30 PM — Aug 21 8:00 PM, Yangon, Weather by CustomWeather, © 2014

Note: Actual official high and low records may vary slightly from our data, if they occured in-between our weather recording intervals... More about our weather records

Advertising

Yangon weather history for previous 24 hours

 ConditionsComfort  
Time TempWeatherWind HumidityBarometerVisibility
8:00 PM
Aug 21
81 °FPassing clouds.3 mph84%29.77 "Hg4 mi
7:30 PM81 °FPassing clouds.3 mph84%29.77 "Hg4 mi
7:00 PM81 °FPassing clouds.3 mph84%29.77 "Hg4 mi
6:30 PM81 °FScattered clouds.3 mph84%29.77 "Hg4 mi
6:00 PM82 °FPartly sunny.2 mph84%29.74 "Hg4 mi
5:30 PM82 °FPartly sunny.3 mph84%29.74 "Hg4 mi
5:00 PM82 °FPartly sunny.3 mph84%29.74 "Hg4 mi
4:30 PM81 °FPartly sunny.2 mph89%29.74 "Hg4 mi
4:00 PM81 °FPartly sunny.2 mph89%29.74 "Hg4 mi
3:30 PM81 °FPartly sunny.3 mph89%29.74 "Hg4 mi
3:00 PM81 °FPartly sunny.3 mph89%29.74 "Hg4 mi
2:30 PM81 °FDrizzle. Partly sunny.6 mph89%29.77 "Hg4 mi
2:00 PM81 °FDrizzle. Partly sunny.2 mph89%29.77 "Hg4 mi
1:30 PM81 °FDrizzle. Mostly cloudy.2 mph89%29.80 "Hg4 mi
1:00 PM81 °FDrizzle. Mostly cloudy.2 mph89%29.80 "Hg4 mi
12:30 PM81 °FDrizzle. Mostly cloudy.3 mph89%29.80 "Hg4 mi
12:00 PM81 °FDrizzle. Mostly cloudy.3 mph89%29.80 "Hg4 mi
11:30 AM79 °FMostly cloudy.3 mph89%29.80 "Hg4 mi
11:00 AM79 °FMostly cloudy.3 mph89%29.83 "Hg4 mi
10:30 AM77 °FLight rain. Mostly cloudy.6 mph89%29.83 "Hg3 mi
10:00 AM77 °FLight rain. Mostly cloudy.3 mph89%29.83 "Hg3 mi
9:30 AM79 °FRain. Mostly cloudy.10 mph94%29.83 "Hg2 mi
9:00 AM79 °FThunderstorms. Mostly cloudy.9 mph94%29.83 "Hg2 mi
8:30 AM79 °FMostly cloudy.2 mph94%29.80 "Hg4 mi
8:00 AM79 °FMostly cloudy.2 mph94%29.80 "Hg4 mi
7:30 AM77 °FMostly cloudy.2 mph89%29.80 "Hg4 mi
7:00 AM77 °FMostly cloudy.2 mph89%29.80 "Hg4 mi
6:30 AM77 °FMostly cloudy.2 mph100%29.77 "Hg4 mi
6:00 AM77 °FMostly cloudy.3 mph100%29.77 "Hg4 mi
5:30 AM77 °FMostly cloudy.3 mph100%29.77 "Hg4 mi
5:00 AM77 °FMostly cloudy.5 mph100%29.77 "Hg4 mi
12:30 AM77 °FMostly cloudy.3 mph89%29.80 "Hg4 mi
12:00 AM77 °FMostly cloudy.3 mph89%29.80 "Hg4 mi
11:30 PM
Aug 20
77 °FMostly cloudy.3 mph89%29.80 "Hg4 mi
10:30 PM77 °FMostly cloudy.2 mph89%29.83 "Hg4 mi
10:00 PM77 °FMostly cloudy.3 mph89%29.83 "Hg4 mi
9:30 PM77 °FMostly cloudy.3 mph89%29.83 "Hg4 mi
9:00 PM77 °FMostly cloudy.2 mph89%29.80 "Hg4 mi
Weather by CustomWeather, © 2014

See weather overviewHow to use our weather pages